period_start,C,m1,H,J0,J1,J2,J3,J4,J5,JA,JB,JC,JD,JJ,JK,JN,#
2014-01-03 00:00:21,0.12,0.84,0.00,24.18,25.77,28.52,6.25,29.50,1023.45,2045.87,3206.27,3090.57,3361.86,350.46,325.28,5.22,0000 0000 0000 0000 000000
2014-01-03 00:01:21,0.15,0.84,0.00,24.19,25.77,28.53,6.05,29.58,1023.45,2045.82,3206.02,3090.21,3361.38,349.92,324.77,5.23,0000 0000 0000 0000 000000
2014-01-03 00:02:22,0.17,0.84,0.00,24.17,25.77,28.54,5.87,29.50,1023.45,2045.84,3205.51,3090.07,3361.14,349.47,324.37,5.23,0000 0000 0000 0000 000000
2014-01-03 00:03:22,0.14,0.85,0.00,24.16,25.77,28.50,5.93,29.54,1023.46,2045.84,3205.18,3089.83,3360.94,349.81,325.12,5.24,0000 0000 0000 0000 000000
2014-01-03 00:04:22,0.15,0.85,0.00,24.17,25.77,28.48,5.88,29.38,1023.46,2045.83,3204.93,3089.35,3360.44,349.67,324.57,5.24,0000 0000 0000 0000 000000
2014-01-03 00:05:22,0.19,0.85,0.00,24.18,25.77,28.47,5.90,29.50,1023.46,2045.86,3204.41,3089.12,3360.18,350.29,325.21,5.25,0000 0000 0000 0000 000000
2014-01-03 00:06:23,0.14,0.85,0.00,24.19,25.77,28.50,5.92,29.54,1023.46,2045.86,3204.14,3088.96,3359.97,350.48,325.75,5.25,0000 0000 0000 0000 000000
2014-01-03 00:07:23,0.14,0.85,0.00,24.17,25.77,28.47,6.07,29.50,1023.46,2045.93,3203.83,3088.60,3359.49,349.98,324.84,5.26,0000 0000 0000 0000 000000
2014-01-03 00:08:23,0.24,0.85,0.00,24.17,25.77,28.47,6.01,29.67,1023.46,2045.95,3203.33,3088.25,3359.18,349.57,324.47,5.27,0000 0000 0000 0000 000000
2014-01-03 00:09:24,0.16,0.85,0.00,24.18,25.77,28.48,5.96,29.50,1023.46,2045.92,3203.07,3088.09,3359.05,348.97,323.68,5.27,0000 0000 0000 0000 000000
2014-01-03 00:10:24,0.09,0.85,0.00,24.18,25.77,28.50,5.96,29.46,1023.46,2045.89,3202.51,3087.84,3358.67,350.32,324.95,5.28,0000 0000 0000 0000 000000
2014-01-03 00:11:24,0.17,0.85,0.00,24.17,25.77,28.52,5.86,29.54,1023.45,2045.86,3202.18,3087.34,3358.25,349.53,324.76,5.28,0000 0000 0000 0000 000000
2014-01-03 00:12:24,0.20,0.85,0.00,24.16,25.77,28.50,6.14,29.54,1023.45,2045.90,3201.72,3087.12,3358.08,350.82,325.83,5.29,0000 0000 0000 0000 000000
2014-01-03 00:13:25,0.16,0.86,0.00,24.16,25.76,28.50,5.88,29.63,1023.45,2045.93,3201.27,3087.01,3357.79,349.30,324.22,5.30,0000 0000 0000 0000 000000
2014-01-03 00:14:25,0.14,0.86,0.00,24.16,25.76,28.50,5.93,29.58,1023.45,2045.87,3200.92,3086.56,3357.34,350.25,325.11,5.30,0000 0000 0000 0000 000000
2014-01-03 00:15:26,0.18,0.86,0.00,24.17,25.76,28.50,6.04,29.67,1023.45,2045.86,3200.38,3086.21,3357.10,350.18,325.36,5.31,0000 0000 0000 0000 000000
2014-01-03 00:16:26,0.14,0.86,0.00,24.20,25.76,28.55,5.95,29.42,1023.45,2045.78,3200.13,3086.06,3356.75,349.55,324.53,5.31,0000 0000 0000 0000 000000
2014-01-03 00:17:26,0.10,0.86,0.00,24.19,25.77,28.56,6.00,29.54,1023.46,2045.83,3199.78,3085.78,3356.29,350.11,325.15,5.32,0000 0000 0000 0000 000000
2014-01-03 00:18:26,0.18,0.86,0.00,24.17,25.76,28.52,5.86,29.54,1023.45,2045.84,3199.30,3085.33,3356.10,349.44,324.82,5.33,0000 0000 0000 0000 000000
2014-01-03 00:19:27,0.22,0.86,0.00,24.16,25.76,28.53,5.87,29.42,1023.46,2045.88,3199.10,3085.12,3355.66,349.91,324.19,5.33,0000 0000 0000 0000 000000
2014-01-03 00:20:27,0.17,0.86,0.00,24.16,25.77,28.51,5.98,29.54,1023.46,2045.91,3198.78,3085.01,3355.25,350.53,325.16,5.34,0000 0000 0000 0000 000000
2014-01-03 00:21:27,0.16,0.86,0.00,24.15,25.76,28.48,6.14,29.75,1023.46,2045.94,3198.33,3084.63,3355.09,350.75,325.76,5.34,0000 0000 0000 0000 000000
2014-01-03 00:22:27,0.19,0.87,0.00,24.16,25.76,28.51,5.86,29.58,1023.45,2045.96,3198.11,3084.24,3354.68,349.10,324.04,5.35,0000 0000 0000 0000 000000
2014-01-03 00:23:28,0.18,0.87,0.00,24.18,25.76,28.51,5.86,29.54,1023.46,2045.95,3197.71,3084.08,3354.26,350.35,324.97,5.35,0000 0000 0000 0000 000000
2014-01-03 00:24:28,0.15,0.87,0.00,24.19,25.76,28.52,6.00,29.58,1023.45,2045.98,3197.26,3083.80,3354.07,350.56,325.36,5.36,0000 0000 0000 0000 000000
2014-01-03 00:25:28,0.16,0.87,0.00,24.19,25.76,28.54,6.03,29.71,1023.45,2045.96,3197.03,3083.36,3353.74,350.01,324.85,5.37,0000 0000 0000 0000 000000
2014-01-03 00:26:29,0.17,0.87,0.00,24.18,25.76,28.55,5.86,29.50,1023.47,2045.96,3196.54,3083.13,3353.30,349.21,324.13,5.37,0000 0000 0000 0000 000000
2014-01-03 00:27:29,0.17,0.87,0.00,24.16,25.76,28.53,5.84,29.42,1023.45,2045.97,3196.19,3083.04,3353.10,349.16,323.97,5.38,0000 0000 0000 0000 000000
2014-01-03 00:28:29,0.12,0.87,0.00,24.14,25.76,28.51,5.94,29.42,1023.46,2045.97,3195.73,3082.63,3352.91,349.92,324.82,5.38,0000 0000 0000 0000 000000
2014-01-03 00:29:29,0.19,0.87,0.00,24.16,25.76,28.50,5.72,29.38,1023.45,2045.93,3195.27,3082.24,3352.37,349.00,323.95,5.39,0000 0000 0000 0000 000000
2014-01-03 00:30:30,0.16,0.87,0.00,24.16,25.75,28.51,6.05,29.63,1023.45,2045.85,3194.87,3082.07,3352.13,350.22,325.12,5.40,0000 0000 0000 0000 000000
2014-01-03 00:31:30,0.07,0.87,0.00,24.15,25.75,28.49,6.08,29.46,1023.46,2045.77,3194.35,3081.75,3351.88,350.29,325.06,5.40,0000 0000 0000 0000 000000
2014-01-03 00:32:30,0.18,0.87,0.00,24.15,25.75,28.48,5.82,29.42,1023.47,2045.86,3194.11,3081.30,3351.43,349.34,324.27,5.41,0000 0000 0000 0000 000000
2014-01-03 00:33:31,0.22,0.88,0.00,24.15,25.75,28.50,5.91,29.33,1023.46,2045.92,3193.75,3081.11,3351.17,349.49,324.41,5.41,0000 0000 0000 0000 000000
2014-01-03 00:34:31,0.18,0.88,0.00,24.15,25.75,28.53,6.10,29.29,1023.45,2045.90,3193.30,3080.97,3350.99,349.56,324.62,5.42,0000 0000 0000 0000 000000
2014-01-03 00:35:31,0.14,0.88,0.00,24.14,25.75,28.54,6.10,29.38,1023.45,2045.88,3193.04,3080.60,3350.56,350.42,325.13,5.42,0000 0000 0000 0000 000000
2014-01-03 00:36:31,0.14,0.88,0.00,24.13,25.75,28.53,6.04,29.42,1023.45,2045.88,3192.53,3080.23,3350.22,350.08,324.98,5.43,0000 0000 0000 0000 000000
2014-01-03 00:37:32,0.20,0.88,0.00,24.13,25.75,28.52,5.80,29.54,1023.45,2045.93,3192.19,3080.08,3350.06,349.06,324.03,5.44,0000 0000 0000 0000 000000
2014-01-03 00:38:32,0.13,0.88,0.00,24.15,25.75,28.50,5.80,29.54,1023.45,2045.94,3191.95,3079.84,3349.70,349.10,324.32,5.44,0000 0000 0000 0000 000000
2014-01-03 00:39:32,0.20,0.88,0.00,24.14,25.75,28.50,5.84,29.29,1023.45,2045.94,3191.42,3079.33,3349.27,349.49,324.41,5.45,0000 0000 0000 0000 000000
2014-01-03 00:40:33,0.17,0.88,0.00,24.14,25.75,28.48,5.67,29.42,1023.45,2045.87,3191.13,3079.12,3349.01,348.39,323.41,5.45,0000 0000 0000 0000 000000
2014-01-03 00:41:33,0.08,0.88,0.00,24.14,25.75,28.50,6.15,29.46,1023.45,2045.88,3190.72,3079.03,3348.60,349.57,324.50,5.46,0000 0000 0000 0000 000000
2014-01-03 00:42:33,0.17,0.88,0.00,24.15,25.75,28.52,6.02,29.54,1023.45,2045.92,3190.28,3078.67,3348.22,350.45,325.30,5.47,0000 0000 0000 0000 000000
2014-01-03 00:43:33,0.22,0.89,0.00,24.17,25.75,28.52,5.83,29.29,1023.46,2045.95,3190.01,3078.28,3348.08,348.81,323.76,5.47,0000 0000 0000 0000 000000
2014-01-03 00:44:34,0.18,0.89,0.00,24.17,25.75,28.53,5.76,29.46,1023.45,2045.96,3189.44,3078.09,3347.88,349.52,324.42,5.48,0000 0000 0000 0000 000000
2014-01-03 00:45:34,0.13,0.89,0.00,24.17,25.75,28.52,6.01,29.54,1023.46,2045.94,3189.12,3077.91,3347.41,350.17,325.03,5.48,0000 0000 0000 0000 000000
2014-01-03 00:46:34,0.16,0.89,0.00,24.18,25.75,28.49,5.76,29.29,1023.46,2045.95,3188.66,3077.46,3347.15,348.89,323.82,5.49,0000 0000 0000 0000 000000
2014-01-03 00:47:34,0.19,0.89,0.00,24.18,25.75,28.51,6.04,29.58,1023.46,2045.96,3188.25,3077.17,3347.04,350.80,325.59,5.50,0000 0000 0000 0000 000000
2014-01-03 00:48:35,0.13,0.89,0.00,24.16,25.75,28.51,5.88,29.50,1023.47,2045.95,3187.93,3077.03,3346.72,351.37,326.27,5.50,0000 0000 0000 0000 000000
2014-01-03 00:49:35,0.15,0.89,0.00,24.14,25.75,28.52,5.86,29.46,1023.46,2045.86,3187.38,3076.65,3346.27,349.15,324.11,5.51,0000 0000 0000 0000 000000
2014-01-03 00:50:35,0.16,0.89,0.00,24.15,25.75,28.52,6.12,29.50,1023.45,2045.85,3187.12,3076.24,3346.07,350.55,325.39,5.51,0000 0000 0000 0000 000000
2014-01-03 00:51:36,0.12,0.89,0.00,24.15,25.75,28.55,5.71,29.25,1023.45,2045.86,3186.62,3076.08,3345.80,348.76,323.62,5.52,0000 0000 0000 0000 000000
2014-01-03 00:52:36,0.16,0.89,0.00,24.15,25.75,28.52,5.92,29.54,1023.45,2045.89,3186.23,3075.92,3345.32,349.50,324.41,5.52,0000 0000 0000 0000 000000
2014-01-03 00:53:36,0.20,0.89,0.00,24.15,25.75,28.47,6.14,29.54,1023.45,2045.92,3186.03,3075.44,3345.12,350.61,325.59,5.53,0000 0000 0000 0000 000000
2014-01-03 00:54:36,0.18,0.90,0.00,24.15,25.75,28.45,5.74,29.46,1023.45,2045.93,3185.58,3075.16,3345.03,349.19,324.58,5.54,0000 0000 0000 0000 000000
2014-01-03 00:55:37,0.14,0.90,0.00,24.17,25.75,28.51,5.75,29.38,1023.45,2045.94,3185.21,3075.05,3344.67,349.32,323.85,5.54,0000 0000 0000 0000 000000
2014-01-03 00:56:37,0.11,0.90,0.00,24.15,25.75,28.52,6.15,29.50,1023.45,2045.91,3184.75,3074.83,3344.26,349.22,324.15,5.55,0000 0000 0000 0000 000000
2014-01-03 00:57:37,0.17,0.90,0.00,24.15,25.75,28.53,5.73,29.33,1023.45,2045.91,3184.29,3074.40,3344.09,348.98,323.94,5.55,0000 0000 0000 0000 000000
2014-01-03 00:58:37,0.16,0.90,0.00,24.17,25.75,28.52,6.14,29.58,1023.45,2045.91,3184.10,3074.15,3343.87,350.89,325.69,5.56,0000 0000 0000 0000 000000
2014-01-03 00:59:38,0.12,0.90,0.00,24.14,25.75,28.49,6.09,29.50,1023.45,2045.93,3183.73,3074.04,3343.39,350.76,325.83,5.57,0000 0000 0000 0000 000000
2014-01-03 01:00:38,0.17,0.90,0.00,24.13,25.75,28.47,5.73,29.50,1023.45,2045.93,3183.29,3073.78,3343.13,349.79,324.37,5.57,0000 0000 0000 0000 000000
2014-01-03 01:01:38,0.17,0.90,0.00,24.13,25.75,28.49,6.07,29.67,1023.45,2045.95,3183.06,3073.32,3343.01,350.52,325.39,5.58,0000 0000 0000 0000 000000
2014-01-03 01:02:38,0.15,0.90,0.00,24.14,25.75,28.50,5.88,29.42,1023.45,2045.96,3182.57,3073.12,3342.65,349.69,324.61,5.58,0000 0000 0000 0000 000000
2014-01-03 01:03:39,0.18,0.90,0.00,24.13,25.75,28.49,5.82,29.67,1023.45,2045.93,3182.21,3072.98,3342.25,349.53,324.47,5.59,0000 0000 0000 0000 000000
2014-01-03 01:04:39,0.10,0.90,0.00,24.14,25.75,28.50,6.06,29.58,1023.45,2045.88,3181.69,3072.49,3342.05,350.15,325.26,5.59,0000 0000 0000 0000 000000
2014-01-03 01:05:39,0.19,0.91,0.00,24.15,25.75,28.50,5.93,29.71,1023.45,2045.94,3181.27,3072.18,3341.73,350.08,324.95,5.60,0000 0000 0000 0000 000000
2014-01-03 01:06:40,0.22,0.91,0.00,24.14,25.75,28.48,5.94,29.58,1023.45,2045.95,3180.99,3072.05,3341.31,350.88,325.71,5.61,0000 0000 0000 0000 000000
2014-01-03 01:07:40,0.13,0.91,0.00,24.13,25.75,28.47,5.95,29.58,1023.46,2045.94,3180.49,3071.92,3341.11,350.32,325.21,5.61,0000 0000 0000 0000 000000
2014-01-03 01:08:40,0.14,0.91,0.00,24.13,25.74,28.48,5.83,29.54,1023.46,2045.95,3180.18,3071.46,3341.00,349.32,324.25,5.62,0000 0000 0000 0000 000000
2014-01-03 01:09:41,0.16,0.91,0.00,24.13,25.74,28.47,5.99,29.63,1023.46,2045.97,3179.99,3071.17,3340.60,350.09,324.69,5.62,0000 0000 0000 0000 000000
2014-01-03 01:10:41,0.16,0.91,0.00,24.13,25.74,28.45,5.97,29.50,1023.45,2045.94,3179.48,3071.06,3340.22,349.77,324.89,5.63,0000 0000 0000 0000 000000
2014-01-03 01:11:41,0.12,0.91,0.00,24.12,25.74,28.44,5.91,29.38,1023.47,2045.92,3179.18,3070.92,3340.05,349.65,324.58,5.64,0000 0000 0000 0000 000000
2014-01-03 01:12:41,0.09,0.91,0.00,24.12,25.74,28.50,5.74,29.29,1023.46,2045.90,3178.78,3070.44,3339.59,349.33,324.35,5.64,0000 0000 0000 0000 000000
2014-01-03 01:13:42,0.20,0.91,0.00,24.13,25.74,28.50,5.71,29.38,1023.46,2045.91,3178.29,3070.15,3339.22,350.28,325.16,5.65,0000 0000 0000 0000 000000
2014-01-03 01:14:42,0.17,0.91,0.00,24.13,25.73,28.45,5.92,29.71,1023.46,2045.90,3178.09,3070.05,3339.07,350.21,325.11,5.65,0000 0000 0000 0000 000000
2014-01-03 01:15:42,0.07,0.91,0.00,24.13,25.73,28.47,6.04,29.38,1023.46,2045.92,3177.68,3069.75,3338.77,350.90,325.75,5.66,0000 0000 0000 0000 000000
2014-01-03 01:16:43,0.22,0.92,0.00,24.13,25.73,28.46,6.08,29.83,1023.46,2045.96,3177.24,3069.30,3338.32,349.80,324.72,5.67,0000 0000 0000 0000 000000
2014-01-03 01:17:43,0.20,0.92,0.00,24.15,25.73,28.46,6.01,29.54,1023.46,2045.96,3176.87,3069.11,3338.10,350.07,324.95,5.67,0000 0000 0000 0000 000000
2014-01-03 01:18:43,0.14,0.92,0.00,24.15,25.72,28.48,5.93,29.58,1023.45,2045.96,3176.35,3069.00,3338.02,350.27,325.13,5.68,0000 0000 0000 0000 000000
2014-01-03 01:19:43,0.11,0.92,0.00,24.16,25.72,28.51,6.01,29.63,1023.47,2045.96,3176.12,3068.69,3337.65,350.07,324.94,5.68,0000 0000 0000 0000 000000
2014-01-03 01:20:44,0.17,0.92,0.00,24.13,25.72,28.52,5.72,29.58,1023.49,2045.98,3175.67,3068.27,3337.25,349.42,324.61,5.69,0000 0000 0000 0000 000000
2014-01-03 01:21:44,0.20,0.92,0.00,24.13,25.72,28.49,6.16,29.58,1023.47,2045.97,3175.26,3068.09,3337.08,350.24,325.13,5.69,0000 0000 0000 0000 000000
2014-01-03 01:22:44,0.09,0.92,0.00,24.14,25.72,28.50,6.01,29.63,1023.47,2045.94,3175.08,3068.00,3336.87,349.75,324.67,5.70,0000 0000 0000 0000 000000
2014-01-03 01:23:44,0.09,0.92,0.00,24.14,25.72,28.51,6.01,29.46,1023.48,2045.96,3174.63,3067.59,3336.38,349.77,324.69,5.71,0000 0000 0000 0000 000000
2014-01-03 01:24:44,0.26,0.92,0.00,24.12,25.72,28.48,6.06,29.29,1023.45,2045.95,3174.23,3067.22,3336.13,350.70,325.57,5.71,0000 0000 0000 0000 000000
2014-01-03 01:25:45,0.13,0.92,0.00,24.12,25.72,28.51,5.87,29.58,1023.46,2045.95,3174.08,3067.08,3336.04,349.21,324.19,5.72,0000 0000 0000 0000 000000
2014-01-03 01:26:45,0.06,0.92,0.00,24.13,25.72,28.53,5.96,29.63,1023.45,2045.96,3173.70,3066.97,3335.66,349.82,324.68,5.72,0000 0000 0000 0000 000000
2014-01-03 01:27:45,0.18,0.93,0.00,24.13,25.72,28.52,5.98,29.63,1023.47,2045.96,3173.26,3066.52,3335.24,349.60,324.57,5.73,0000 0000 0000 0000 000000
2014-01-03 01:28:45,0.21,0.93,0.00,24.12,25.72,28.52,5.94,29.42,1023.47,2045.97,3172.88,3066.19,3335.06,349.61,324.56,5.74,0000 0000 0000 0000 000000
2014-01-03 01:29:46,0.14,0.93,0.00,24.09,25.72,28.52,5.86,29.54,1023.46,2045.96,3172.34,3066.06,3334.69,349.48,324.14,5.74,0000 0000 0000 0000 000000
2014-01-03 01:30:46,0.16,0.93,0.00,24.11,25.72,28.50,5.87,29.50,1023.46,2045.96,3172.10,3065.75,3334.27,349.48,324.66,5.75,0000 0000 0000 0000 000000
2014-01-03 01:31:46,0.16,0.93,0.00,24.11,25.72,28.50,6.15,29.63,1023.47,2045.95,3171.62,3065.29,3334.09,350.90,325.77,5.75,0000 0000 0000 0000 000000
2014-01-03 01:32:46,0.18,0.93,0.00,24.09,25.72,28.50,5.79,29.38,1023.46,2045.95,3171.23,3065.10,3333.84,349.49,324.47,5.76,0000 0000 0000 0000 000000
2014-01-03 01:33:47,0.11,0.93,0.00,24.11,25.72,28.49,5.98,29.63,1023.47,2045.95,3170.93,3064.93,3333.36,349.64,324.32,5.76,0000 0000 0000 0000 000000
2014-01-03 01:34:47,0.18,0.93,0.00,24.10,25.72,28.50,6.06,29.54,1023.45,2045.96,3170.41,3064.44,3333.13,349.85,325.20,5.77,0000 0000 0000 0000 000000
2014-01-03 01:35:47,0.20,0.93,0.00,24.11,25.72,28.48,6.04,29.54,1023.45,2045.93,3170.15,3064.16,3333.00,350.12,325.02,5.78,0000 0000 0000 0000 000000
2014-01-03 01:36:47,0.08,0.93,0.00,24.10,25.72,28.46,5.85,29.58,1023.46,2045.95,3169.85,3064.05,3332.61,349.19,324.19,5.78,0000 0000 0000 0000 000000
2014-01-03 01:37:48,0.17,0.94,0.00,24.11,25.72,28.44,5.94,29.54,1023.45,2045.96,3169.34,3063.81,3332.25,350.04,324.96,5.79,0000 0000 0000 0000 000000
2014-01-03 01:38:48,0.18,0.94,0.00,24.09,25.72,28.44,6.02,29.67,1023.45,2045.97,3169.11,3063.35,3332.07,349.88,325.04,5.79,0000 0000 0000 0000 000000
2014-01-03 01:39:48,0.16,0.94,0.00,24.08,25.72,28.45,6.08,29.67,1023.45,2045.98,3168.70,3063.12,3331.67,350.10,325.05,5.80,0000 0000 0000 0000 000000
2014-01-03 01:40:48,0.17,0.94,0.00,24.09,25.72,28.49,6.23,29.58,1023.45,2045.95,3168.26,3063.02,3331.26,350.78,325.85,5.81,0000 0000 0000 0000 000000
2014-01-03 01:41:49,0.11,0.94,0.00,24.10,25.72,28.47,5.96,29.46,1023.45,2045.97,3168.06,3062.72,3331.09,350.24,325.16,5.81,0000 0000 0000 0000 000000
2014-01-03 01:42:49,0.15,0.94,0.00,24.08,25.72,28.49,6.19,29.42,1023.45,2045.95,3167.63,3062.28,3330.96,350.96,325.84,5.82,0000 0000 0000 0000 000000
2014-01-03 01:43:49,0.16,0.94,0.00,24.07,25.72,28.49,5.73,29.29,1023.45,2045.96,3167.23,3062.10,3330.50,349.05,324.09,5.82,0000 0000 0000 0000 000000
2014-01-03 01:44:50,0.16,0.94,0.00,24.07,25.72,28.48,6.11,29.58,1023.45,2045.97,3167.02,3062.01,3330.19,349.81,324.80,5.83,0000 0000 0000 0000 000000
2014-01-03 01:45:50,0.09,0.94,0.00,24.07,25.72,28.44,6.05,29.67,1023.45,2045.98,3166.52,3061.75,3330.05,349.89,324.86,5.84,0000 0000 0000 0000 000000
2014-01-03 01:46:50,0.17,0.94,0.00,24.08,25.72,28.45,5.76,29.29,1023.45,2045.98,3166.18,3061.32,3329.75,349.35,324.36,5.84,0000 0000 0000 0000 000000
2014-01-03 01:47:51,0.18,0.94,0.00,24.07,25.72,28.45,6.00,29.50,1023.45,2045.98,3165.98,3061.12,3329.30,350.01,324.97,5.85,0000 0000 0000 0000 000000
2014-01-03 01:48:51,0.12,0.95,0.00,24.05,25.72,28.46,6.21,29.54,1023.45,2045.97,3165.47,3061.01,3329.10,351.05,325.96,5.85,0000 0000 0000 0000 000000
2014-01-03 01:49:51,0.11,0.95,0.00,24.06,25.72,28.47,5.92,29.46,1023.45,2045.96,3165.16,3060.55,3328.88,350.87,326.00,5.86,0000 0000 0000 0000 000000
2014-01-03 01:50:51,0.18,0.95,0.00,24.09,25.72,28.50,5.85,29.50,1023.45,2045.96,3164.78,3060.20,3328.43,349.92,324.87,5.86,0000 0000 0000 0000 000000
2014-01-03 01:51:51,0.21,0.95,0.00,24.10,25.72,28.50,5.86,29.50,1023.45,2045.97,3164.29,3060.07,3328.17,349.76,324.71,5.87,0000 0000 0000 0000 000000
2014-01-03 01:52:52,0.13,0.95,0.00,24.06,25.72,28.49,5.76,29.29,1023.45,2045.97,3164.02,3059.93,3328.05,349.29,324.32,5.88,0000 0000 0000 0000 000000
2014-01-03 01:53:52,0.10,0.95,0.00,24.07,25.72,28.51,5.86,29.46,1023.45,2045.96,3163.59,3059.58,3327.94,349.63,324.63,5.88,0000 0000 0000 0000 000000
2014-01-03 01:54:52,0.15,0.95,0.00,24.08,25.72,28.46,6.11,29.42,1023.44,2045.97,3163.22,3059.23,3327.50,349.77,324.93,5.89,0000 0000 0000 0000 000000
2014-01-03 01:55:52,0.18,0.95,0.00,24.05,25.71,28.47,5.99,29.50,1023.43,2045.95,3162.91,3059.08,3327.18,350.19,325.35,5.89,0000 0000 0000 0000 000000
2014-01-03 01:56:52,0.11,0.95,0.00,24.06,25.71,28.44,5.87,29.58,1023.43,2045.95,3162.39,3058.85,3327.06,349.81,324.80,5.90,0000 0000 0000 0000 000000
2014-01-03 01:57:53,0.15,0.95,0.00,24.09,25.71,28.47,5.93,29.38,1023.41,2045.96,3162.14,3058.36,3326.84,349.74,324.71,5.91,0000 0000 0000 0000 000000
2014-01-03 01:58:53,0.18,0.95,0.00,24.07,25.71,28.45,6.02,29.58,1023.43,2045.97,3161.88,3058.13,3326.39,349.90,324.86,5.91,0000 0000 0000 0000 000000
2014-01-03 01:59:53,0.16,0.96,0.00,24.07,25.70,28.48,5.89,29.58,1023.43,2045.99,3161.41,3058.02,3326.13,350.56,325.48,5.92,0000 0000 0000 0000 000000
2014-01-03 02:00:54,0.12,0.96,0.00,24.08,25.70,28.47,5.80,29.88,1023.40,2045.96,3161.14,3057.67,3325.70,349.61,324.66,5.92,0000 0000 0000 0000 000000
2014-01-03 02:01:54,0.19,0.96,0.00,24.07,25.70,28.46,5.88,29.63,1023.39,2045.88,3160.87,3057.25,3325.25,349.98,324.89,5.93,0000 0000 0000 0000 000000
2014-01-03 02:02:54,0.08,0.96,0.00,24.05,25.70,28.47,6.17,29.67,1023.36,2045.89,3160.38,3057.09,3325.07,350.62,325.53,5.93,0000 0000 0000 0000 000000
2014-01-03 02:03:54,0.16,0.96,0.00,24.04,25.70,28.47,6.17,29.58,1023.40,2045.94,3160.12,3057.01,3324.95,350.67,325.62,5.94,0000 0000 0000 0000 000000
2014-01-03 02:04:55,0.08,0.96,0.00,24.02,25.70,28.48,6.17,29.50,1023.42,2045.95,3159.66,3056.69,3324.58,351.02,325.68,5.95,0000 0000 0000 0000 000000
2014-01-03 02:05:55,0.28,0.96,0.00,24.04,25.70,28.47,5.83,29.29,1023.42,2045.97,3159.25,3056.26,3324.23,351.32,326.21,5.95,0000 0000 0000 0000 000000
2014-01-03 02:06:55,0.17,0.96,0.00,24.06,25.70,28.46,6.13,29.75,1023.41,2045.96,3158.98,3056.09,3324.08,350.51,325.44,5.96,0000 0000 0000 0000 000000
2014-01-03 02:07:55,0.09,0.96,0.00,24.05,25.70,28.48,6.27,29.54,1023.42,2045.95,3158.43,3055.97,3323.84,351.16,326.06,5.96,0000 0000 0000 0000 000000
2014-01-03 02:08:56,0.13,0.96,0.00,24.03,25.70,28.47,6.11,29.54,1023.42,2045.87,3158.15,3055.54,3323.35,350.32,325.29,5.97,0000 0000 0000 0000 000000
2014-01-03 02:09:56,0.16,0.96,0.00,24.03,25.70,28.48,5.84,29.54,1023.39,2045.90,3157.92,3055.22,3323.12,349.74,324.99,5.98,0000 0000 0000 0000 000000
2014-01-03 02:10:56,0.13,0.97,0.00,24.03,25.70,28.51,5.79,29.54,1023.42,2045.91,3157.40,3055.06,3322.99,349.47,324.51,5.98,0000 0000 0000 0000 000000
2014-01-03 02:11:56,0.15,0.97,0.00,24.05,25.70,28.50,5.77,29.42,1023.45,2045.94,3157.14,3054.86,3322.56,348.84,323.92,5.99,0000 0000 0000 0000 000000
2014-01-03 02:12:56,0.18,0.97,0.00,24.06,25.70,28.50,6.13,29.46,1023.45,2045.97,3156.83,3054.44,3322.24,350.25,325.21,5.99,0000 0000 0000 0000 000000
2014-01-03 02:13:57,0.22,0.97,0.00,24.05,25.70,28.47,5.81,29.46,1023.45,2045.95,3156.32,3054.17,3322.08,349.61,324.63,6.00,0000 0000 0000 0000 000000
2014-01-03 02:14:57,0.10,0.97,0.00,24.04,25.70,28.47,5.96,29.54,1023.45,2045.96,3156.08,3054.04,3322.00,350.13,325.12,6.00,0000 0000 0000 0000 000000
2014-01-03 02:15:57,0.08,0.97,0.00,24.06,25.70,28.45,5.83,29.50,1023.45,2045.97,3155.62,3053.88,3321.62,350.03,324.97,6.01,0000 0000 0000 0000 000000
2014-01-03 02:16:57,0.19,0.97,0.00,24.05,25.70,28.46,5.78,29.38,1023.45,2045.98,3155.22,3053.43,3321.23,348.63,323.65,6.02,0000 0000 0000 0000 000000
2014-01-03 02:17:58,0.22,0.97,0.00,24.03,25.70,28.47,5.75,29.38,1023.45,2045.97,3154.99,3053.15,3321.05,349.55,324.59,6.02,0000 0000 0000 0000 000000
2014-01-03 02:18:58,0.08,0.97,0.00,24.03,25.70,28.47,6.08,29.63,1023.45,2045.94,3154.59,3053.04,3320.62,350.29,325.28,6.03,0000 0000 0000 0000 000000
2014-01-03 02:19:58,0.14,0.97,0.00,24.05,25.70,28.45,6.15,29.63,1023.45,2045.97,3154.22,3052.85,3320.23,350.23,325.08,6.03,0000 0000 0000 0000 000000
2014-01-03 02:20:58,0.16,0.97,0.00,24.05,25.70,28.44,5.66,29.46,1023.45,2045.97,3154.05,3052.40,3320.07,348.55,323.58,6.04,0000 0000 0000 0000 000000
2014-01-03 02:21:58,0.14,0.98,0.00,24.06,25.70,28.48,5.73,29.33,1023.45,2045.98,3153.61,3052.15,3319.94,349.89,324.88,6.05,0000 0000 0000 0000 000000
2014-01-03 02:22:59,0.15,0.98,0.00,24.07,25.70,28.48,5.88,29.54,1023.43,2045.99,3153.23,3052.04,3319.53,349.71,324.77,6.05,0000 0000 0000 0000 000000
2014-01-03 02:23:59,0.14,0.98,0.00,24.04,25.70,28.46,5.83,29.38,1023.34,2045.97,3152.91,3051.85,3319.20,349.33,324.34,6.06,0000 0000 0000 0000 000000
2014-01-03 02:24:59,0.11,0.98,0.00,24.04,25.70,28.47,6.17,29.50,1023.31,2045.96,3152.40,3051.40,3319.07,350.76,325.67,6.06,0000 0000 0000 0000 000000
2014-01-03 02:25:59,0.20,0.98,0.00,24.04,25.70,28.49,5.99,29.13,1023.34,2045.95,3152.12,3051.14,3318.67,350.54,325.46,6.07,0000 0000 0000 0000 000000
2014-01-03 02:27:00,0.14,0.98,0.00,24.03,25.70,28.49,6.03,29.54,1023.29,2045.94,3151.66,3050.99,3318.25,350.04,325.00,6.08,0000 0000 0000 0000 000000
2014-01-03 02:28:00,0.15,0.98,0.00,24.03,25.70,28.49,5.97,29.42,1023.33,2045.93,3151.26,3050.58,3318.09,350.20,325.16,6.08,0000 0000 0000 0000 000000
2014-01-03 02:29:00,0.19,0.98,0.00,24.03,25.70,28.45,6.20,29.58,1023.37,2045.93,3151.06,3050.22,3317.89,351.14,326.22,6.09,0000 0000 0000 0000 000000
2014-01-03 02:30:00,0.12,0.98,0.00,24.02,25.70,28.46,5.82,29.46,1023.44,2045.94,3150.61,3050.07,3317.41,348.72,323.83,6.09,0000 0000 0000 0000 000000
2014-01-03 02:31:01,0.19,0.98,0.00,24.03,25.70,28.46,6.13,29.63,1023.44,2045.94,3150.22,3049.94,3317.15,350.73,325.69,6.10,0000 0000 0000 0000 000000
2014-01-03 02:32:01,0.10,0.98,0.00,24.02,25.70,28.46,6.22,29.58,1023.45,2045.97,3149.99,3049.55,3317.04,351.27,326.20,6.10,0000 0000 0000 0000 000000
2014-01-03 02:33:01,0.19,0.99,0.00,24.03,25.70,28.44,6.06,29.50,1023.44,2045.97,3149.49,3049.20,3316.76,350.26,325.26,6.11,0000 0000 0000 0000 000000
2014-01-03 02:34:01,0.18,0.99,0.00,24.03,25.70,28.46,5.94,29.54,1023.44,2045.97,3149.17,3049.06,3316.32,349.77,324.80,6.12,0000 0000 0000 0000 000000
2014-01-03 02:35:01,0.13,0.99,0.00,24.03,25.70,28.46,6.02,29.54,1023.42,2045.95,3148.87,3048.86,3316.11,350.48,325.45,6.12,0000 0000 0000 0000 000000
2014-01-03 02:36:02,0.12,0.99,0.00,24.02,25.70,28.47,5.80,29.38,1023.42,2045.94,3148.35,3048.41,3316.01,349.67,324.71,6.13,0000 0000 0000 0000 000000
2014-01-03 02:37:02,0.18,0.99,0.00,24.03,25.70,28.43,5.92,29.50,1023.40,2045.94,3148.11,3048.16,3315.59,349.47,324.61,6.13,0000 0000 0000 0000 000000